Location: Stockholm
(59.3330°N, 18.0500°E)
Time: 11:07:26
(UTC+01:00)

FENGYUN 1C DEB - Pass Details

Date: 15 December 2023
Orbit: 841 x 915 km, 98.8° (Epoch: 21 February)

Event Time Altitude Azimuth Distance (km) Brightness Sun altitude
Exits shadow 18:29:35 17° 9° (N) 2,041 ? -25.8°
Drops below altitude 10° 18:31:16 10° 355° (N) 2,494 ? -26.0°
Sets 18:34:05 0° 342° (NNW) 3,444 ? -26.3°
